Location: Phoenix
(33.4480°N, 112.0730°W)
Time: 16:33:00
(UTC-07:00)

ISS - All Passes

Search period start: 16 August 2017 00:00
Search period end: 26 August 2017 00:00
Orbit: 401 x 408 km, 51.6° (Epoch: 17 August)

Date Brightness Start Highest point End Pass type
(mag) Time Alt. Az. Time Alt. Az. Time Alt. Az.
16 Aug - 10:46:48 10° SSW 10:49:53 39° SE 10:52:57 10° ENE daylight
16 Aug - 12:24:09 10° WNW 12:26:28 18° NNW 12:28:47 10° NNE daylight
16 Aug - 17:19:33 10° NNE 17:20:18 11° NNE 17:21:02 10° NE daylight
16 Aug - 18:53:57 10° NW 18:57:12 85° NE 19:00:27 10° SE daylight
17 Aug - 09:55:26 10° S 09:57:46 18° SE 10:00:06 10° E daylight
17 Aug - 11:31:06 10° WSW 11:34:04 31° NW 11:37:02 10° NNE daylight
17 Aug - 18:01:51 10° NNW 18:04:56 38° NE 18:07:59 10° ESE daylight
17 Aug - 19:39:18 10° W 19:41:08 14° SW 19:42:57 10° SSW visible
18 Aug - 10:38:30 10° SW 10:41:45 66° NW 10:45:00 10° NE daylight
18 Aug - 17:10:00 10° NNW 17:12:33 21° NE 17:15:04 10° E daylight
18 Aug - 18:46:07 10° WNW 18:49:02 30° SW 18:51:55 10° SSE daylight
19 Aug - 09:46:19 10° SSW 09:49:31 53° SE 09:52:42 10° NE daylight
19 Aug - 11:24:14 10° WNW 11:26:12 15° NNW 11:28:10 10° N daylight
19 Aug - 16:18:33 10° N 16:20:02 12° NNE 16:21:32 10° ENE daylight
19 Aug - 17:53:36 10° NW 17:56:50 71° SW 18:00:04 10° SE daylight
20 Aug - 08:54:39 10° S 08:57:20 23° SE 09:00:01 10° ENE daylight
20 Aug - 10:30:57 10° W 10:33:43 25° NW 10:36:31 10° NNE daylight
20 Aug - 17:01:23 10° NW 17:04:34 49° NE 17:07:43 10° ESE daylight
20 Aug - 18:39:48 10° WSW 18:40:40 11° SW 18:41:32 10° SW daylight
21 Aug - 08:04:13 10° SE 08:05:14 11° SE 08:06:15 10° ESE daylight
21 Aug - 09:38:09 10° WSW 09:41:20 49° NW 09:44:32 10° NE daylight
21 Aug - 16:09:24 10° NNW 16:12:10 25° NE 16:14:55 10° E daylight
21 Aug - 17:45:54 10° WNW 17:48:33 23° SW 17:51:11 10° S daylight
22 Aug - 08:45:46 10° SW 08:49:02 72° SE 08:52:17 10° NE daylight
22 Aug - 10:24:18 10° WNW 10:25:50 13° NNW 10:27:22 10° N daylight
22 Aug - 15:17:42 10° N 15:19:41 15° NNE 15:21:37 10° ENE daylight
22 Aug - 16:53:10 10° NW 16:56:21 52° SW 16:59:31 10° SSE daylight
23 Aug - 07:53:52 10° SSW 07:56:47 31° SE 07:59:44 10° ENE daylight
23 Aug - 09:30:44 10° W 09:33:17 21° NW 09:35:51 10° NNE daylight
23 Aug - 16:00:49 10° NW 16:04:04 66° NE 16:07:17 10° SE daylight
24 Aug - 07:02:44 10° SSE 07:04:37 15° SE 07:06:31 10° E daylight
24 Aug - 08:37:44 10° WSW 08:40:49 38° NW 08:43:55 10° NNE daylight
24 Aug - 15:08:43 10° NNW 15:11:40 31° NE 15:14:36 10° ESE daylight
24 Aug - 16:45:39 10° W 16:47:57 18° SW 16:50:14 10° S daylight
25 Aug - 07:45:10 10° SW 07:48:26 85° NW 07:51:44 10° NE daylight
25 Aug - 09:24:31 10° NW 09:25:21 11° NNW 09:26:11 10° NNW daylight
25 Aug - 14:16:52 10° NNW 14:19:10 18° NNE 14:21:27 10° ENE daylight
25 Aug - 15:52:40 10° WNW 15:55:45 38° SW 15:58:47 10° SSE daylight
